BREEZE-M DEB (TANK), 38344

Orbit data source: Space-Track

BREEZE-M DEB (TANK), 38344 is space debris in HEO originally from a launch on Thu, 17 May 2012 UTC launched from the Tyuratam Missile And Space Complex (TTMTR). Debris objects in space refer to the collection of defunct objects orbiting the Earth. Examples of debris include non-operational satellites, rocket bodies, and fragments generated from explosions, collisions, or faulty payload assembly.

Loading next visibility...
Identifier
38344, 2012-026C
Orbit
HEO
Country
Flag of CISCIS
Related business
Manufacturer
Khrunichev
Mission
Spacecraft
Bus & Motor
BRIZ TANK, Unknown motor
Mass
~1,000 kg wet, 1,000 kg dry
Launch date (UTC)
2012-05-17 (13 years ago)
Launch vehicle
Unknown
Launch site
Tyuratam Missile And Space Complex (TTMTR)
Object type
Payload
Rocket body
Debris
Shape & HBR
Torus, 1.3 m
Radar Cross Section
5.040 m², Large (>1 m²)

Expand to show TLE details & history
Last TLE update: 17 hours ago

TLE from 17 hours ago
0 BREEZE-M DEB (TANK)
1 38344U 12026C   25261.21128537  .00017899  00000-0  15737-2 0  9997
2 38344  49.1832  84.6471 6241084 140.7119 287.5177  3.72184441171357
Epoch: 2025-09-18T05:04Z
TLE epoch observation values (Epoch: 2025-09-18T05:04:15.055Z)
Latitude
0.00001°
Longitude
11.22758°
Altitude
14,366.179 km
Speed
3.971 km/s
True Right ascension
05h 38m 39s
True Declination
0° 00' 00"
Sunlit
Object was in daylight at epoch
Visualization orbit readout
Latitude
Unknown
Longitude
Unknown
Altitude
Unknown
Speed
Unknown
Apparent Right ascension
Unknown
Apparent Declination
Unknown
Sunlit
N/A
Visualization observer readout
Local Sidereal Time
14:40:07
Azimuth
Unknown
Elevation
Unknown
Doppler factor
Unknown
Orbital elements
Apogee altitude
22,188.771 km
Perigee altitude
233.528 km
Semi-major axis
17,589.287 km
Eccentricity
0.62411
Inclination
49.1832°
RAAN
84.6471°
Arg. of periapsis
140.7119°
True anomaly
219.37005°
Mean anomaly
287.5177°
Eccentric anomaly
253.27214°
Mean motion
0.9304 °/min
Orbital period
386.93 mins
BSTAR
0.0015737
Loading maneuver chart data...
Computing Atmospheric mass density...
Loading historical data...
Loading historical data...
Loading historical data...
Loading historical data...
Loading historical data...
Loading historical data...
Loading historical data...

Documentation

Showing up to 5 results
|